Location: D�derode
(51.8092°N, 10.1065°E)
Time: 06:12:52
(UTC+00:00)

Cosmos 1842 Rocket - Pass Details

Date: 01 December 2020
Orbit: 606 x 633 km, 82.5° (Epoch: 23 January)

Event Time Altitude Azimuth Distance (km) Brightness Sun altitude
Rises 15:50:37 0° 201° (SSW) 2,853 7.8 -5.8°
Reaches altitude 10° 15:52:51 10° 206° (SSW) 1,955 7.1 -6.1°
Maximum altitude 15:57:05 54° 285° (WNW) 745 4.3 -6.7°
Drops below altitude 10° 16:01:23 10° 3° (N) 1,978 5.9 -7.3°
Sets 16:03:40 0° 8° (N) 2,891 6.7 -7.6°
